Location: Blue Pit
(43.1414°N, 93.2208°W)
Time: 02:15:51
(UTC+00:00)

Cosmos 1992 Rocket - Pass Details

Date: 18 November 2025
Orbit: 755 x 760 km, 74.0° (Epoch: 08 December)

Event Time Altitude Azimuth Distance (km) Brightness Sun altitude
Rises 12:29:47 0° 203° (SSW) 3,206 7.2 -7.6°
Reaches altitude 10° 12:32:08 10° 204° (SSW) 2,285 6.4 -7.2°
Maximum altitude 12:37:20 77° 291° (WNW) 784 4.0 -6.3°
Drops below altitude 10° 12:42:33 10° 18° (NNE) 2,298 6.4 -5.4°
Sets 12:44:56 0° 19° (NNE) 3,227 7.2 -5.0°
